Location: Bremen
(53.0793°N, 8.8017°E)
Time: 18:04:29
(UTC+02:00)

Altair - Pass Details

Date: 18 April 2024
Orbit: 1502 x 1682 km, 47.2° (Epoch: 24 April)

Event Time Altitude Azimuth Distance (km) Brightness Sun altitude
Rises 00:51:31 0° 272° (W) 4,858 10.3 -25.6°
Reaches altitude 10° 00:54:45 10° 268° (W) 3,848 9.6 -25.7°
Maximum altitude 01:04:13 58° 193° (SSW) 1,791 7.4 -25.9°
Enters shadow 01:09:43 27° 126° (SE) 2,651 8.4 -25.9°
Drops below altitude 10° 01:13:20 10° 118° (ESE) 3,706 - -26.0°
Sets 01:16:23 0° 114° (ESE) 4,670 - -26.0°
